TimeEDT,TemperatureF,Dew PointF,Humidity,Sea Level PressureIn,VisibilityMPH,Wind Direction,Wind SpeedMPH,Gust SpeedMPH,PrecipitationIn,Events,Conditions,WindDirDegrees,DateUTC
12:51 AM,59.0,51.1,75,30.12,10.0,Calm,Calm,-,N/A,,Clear,0,2013-09-07 04:51:00
1:51 AM,55.9,50.0,80,30.12,10.0,Calm,Calm,-,N/A,,Clear,0,2013-09-07 05:51:00
2:51 AM,55.0,50.0,83,30.10,10.0,Calm,Calm,-,N/A,,Clear,0,2013-09-07 06:51:00
3:51 AM,55.0,52.0,89,30.10,9.0,Calm,Calm,-,N/A,,Clear,0,2013-09-07 07:51:00
4:51 AM,55.0,52.0,89,30.09,10.0,Calm,Calm,-,N/A,,Clear,0,2013-09-07 08:51:00
5:51 AM,53.1,51.1,93,30.10,10.0,Calm,Calm,-,N/A,,Clear,0,2013-09-07 09:51:00
6:51 AM,52.0,50.0,93,30.12,8.0,Calm,Calm,-,N/A,,Clear,0,2013-09-07 10:51:00
7:51 AM,53.1,51.1,93,30.12,10.0,Calm,Calm,-,N/A,,Clear,0,2013-09-07 11:51:00
8:51 AM,62.1,55.9,80,30.11,10.0,SSW,3.5,-,N/A,,Clear,200,2013-09-07 12:51:00
9:51 AM,64.9,55.0,70,30.12,10.0,WSW,4.6,-,N/A,,Clear,250,2013-09-07 13:51:00
10:51 AM,71.1,53.1,53,30.11,10.0,West,5.8,-,N/A,,Clear,280,2013-09-07 14:51:00
11:51 AM,73.0,46.9,39,30.10,10.0,WNW,4.6,-,N/A,,Clear,300,2013-09-07 15:51:00
12:51 PM,75.0,43.0,32,30.08,10.0,WNW,8.1,-,N/A,,Clear,300,2013-09-07 16:51:00
1:51 PM,77.0,46.9,34,30.06,10.0,WNW,8.1,-,N/A,,Clear,290,2013-09-07 17:51:00
2:51 PM,77.0,48.9,37,30.04,10.0,NW,9.2,-,N/A,,Clear,310,2013-09-07 18:51:00
3:51 PM,78.1,48.9,36,30.02,10.0,WNW,9.2,-,N/A,,Clear,290,2013-09-07 19:51:00
4:51 PM,77.0,50.0,39,30.02,10.0,NW,6.9,-,N/A,,Clear,320,2013-09-07 20:51:00
5:51 PM,75.9,50.0,40,30.02,10.0,West,8.1,-,N/A,,Clear,280,2013-09-07 21:51:00
6:51 PM,73.9,50.0,43,30.03,10.0,WNW,5.8,-,N/A,,Clear,300,2013-09-07 22:51:00
7:51 PM,69.1,53.1,57,30.04,10.0,Calm,Calm,-,N/A,,Clear,0,2013-09-07 23:51:00
8:51 PM,64.0,54.0,70,30.04,10.0,Calm,Calm,-,N/A,,Clear,0,2013-09-08 00:51:00
9:51 PM,62.1,54.0,75,30.04,10.0,Calm,Calm,-,N/A,,Clear,0,2013-09-08 01:51:00
10:51 PM,60.1,53.1,78,30.01,10.0,Calm,Calm,-,N/A,,Clear,0,2013-09-08 02:51:00
11:51 PM,59.0,54.0,83,30.02,10.0,South,3.5,-,N/A,,Clear,180,2013-09-08 03:51:00